Showing default

FLOCK 4Q 27, 58282

Orbit data source: Space-Track

FLOCK 4Q 27, 58282 is a payload satellite owned by Planet (US) in SSO that was launched on Sat, 11 Nov 2023 UTC via an FALCON 9 launch vehicle from the Air Force Western Test Range (AFWTR). Payload-class satellites include a variety of spacecraft equipped with specific instruments for various scientific and technological missions. These include communications satellites like Starlink; space stations such as the ISS; scientific satellites like the Hubble; Earth observation satellites from companies like Planet Labs, Umbra, and HawkEye 360; GPS; miniature CubeSats for education and research; and military/defense satellites.

Loading next visibility...
Identifier
58282, 2023-174AC
Orbit
SSO
Country
Flag of USUS
Related business
Manufacturer
Planet
Mission
Partially operational Commercial Imaging
Bus & Motor
CUBESAT 3U, Unknown motor
Mass
5.7 kg wet, 5.7 kg dry
Launch date (UTC)
2023-11-11 (3 years ago)
Launch vehicle
FALCON 9
Launch site
Air Force Western Test Range (AFWTR)
Object type
Payload
Rocket body
Debris
Shape & HBR
Box + 2 Pan, 1.0 m
Radar Cross Section
0.072 m², Medium (>0.1 m² and < 1m²)

Expand to show TLE details & history
Last TLE update: 3 days ago

TLE from 3 days ago
0 FLOCK 4Q 27
1 58282U 23174AC  26234.75326041  .00023734  00000-0  30621-3 0  9991
2 58282  97.3789 327.7006 0002843 242.3501 117.7467 15.58991591156119
Epoch: 2026-08-22T18:04Z
TLE epoch observation values (Epoch: 2026-08-22T18:04:41.699Z)
Latitude
-0.00001°
Longitude
85.46771°
Altitude
394.615 km
Speed
7.673 km/s
True Right ascension
21h 50m 48s
True Declination
0° 00' 00"
Sunlit
Object was in full shadow at epoch
Visualization orbit readout
Latitude
Unknown
Longitude
Unknown
Altitude
Unknown
Speed
Unknown
Apparent Right ascension
Unknown
Apparent Declination
Unknown
Sunlit
N/A
Visualization observer readout
Local Sidereal Time
02:02:55
Azimuth
Unknown
Elevation
Unknown
Doppler factor
Unknown
Orbital elements
Apogee altitude
389.411 km
Perigee altitude
385.564 km
Semi-major axis
6,765.624 km
Eccentricity
0.00028
Inclination
97.3789°
RAAN
327.7006°
Arg. of periapsis
242.3501°
True anomaly
117.77553°
Mean anomaly
117.7467°
Eccentric anomaly
117.76111°
Mean motion
3.90015 °/min
Orbital period
92.3 mins
BSTAR
0.00030621
Loading maneuver chart data...
Computing Atmospheric mass density...

Documentation

Showing up to 5 results
|